リニア彗星

309P/LINEAR (2024)

English version
Home page
Updated on August 9, 2025

---------------------------------------------------------------------

・ プロフィール

・ 軌道要素

Epoch 2025 May 5.0 TT = JDT 2460800.5
T 2024 Mar. 28.95432 TT                                 Pike
q   1.6700947            (2000.0)            P               Q
n   0.10771917     Peri.   49.91677     +0.50506271     -0.86154329
a   4.3746240      Node    10.13853     +0.67565642     +0.35753269
e   0.6182312      Incl.   17.02014     +0.53702892     +0.36043522
P   9.15
From 444 observations 2005 Aug. 31-2025 Mar. 25, mean residual 0".5.

・ 光度変化

        m1 = 14.0 + 5 logΔ + 10.0 log r(t - 60)

---------------------------------------------------------------------

軌道要素はM.P.E.C. 2025-G119に掲載されたものです。
光度グラフはComet for Windowsで作成したものです。

---------------------------------------------------------------------

Copyright(C) Seiichi Yoshida (comet@aerith.net). All rights reserved.